This demonstration page uses our WeatherBlox Daily Observations layout. Learn more.

Left ArrowRight Arrow

41.55636, -103.73856

Hourly Observations for November 21, 2016

Temp ( °F °C ) Dew Point ( °F °C ) Humidity (%) Winds ( mph kmh ) Pressure ( in mb ) Visibility ( mi km ) Precip ( " mm )
12:53 am 00:53 Mostly Cloudy 37 2.8 29 -1.7 73 73 E 9 15 29.91 1013 9 14 0.00 0.03
1:53 am 01:53 Mostly Cloudy with Light Snow 35 1.7 28 -2.2 76 76 E 7 11 29.89 1012 9 14 0.00 0.03
2:53 am 02:53 Partly Cloudy 37 2.8 30 -1.1 76 76 ESE 5 7 29.88 1012 9 14 0.00 0.03
3:53 am 03:53 Clear with Light Snow 37 2.8 29 -1.7 73 73 ESE 9 15 29.87 1012 9 14 0.00 0.03
4:53 am 04:53 Clear with Light Snow 38 3.3 29 -1.7 70 70 ESE 8 13 29.88 1012 9 14 0.00 0.03
5:53 am 05:53 Clear 37 2.8 29 -1.7 73 73 SE 5 7 29.90 1013 10 16 0.00 0.03
6:53 am 06:53 Partly Cloudy 36 2.2 30 -1.1 79 79 Calm 29.90 1013 10 16 0.00 0.03
7:53 am 07:53 Partly Cloudy 38 3.3 30 -1.1 73 73 ENE 5 7 29.89 1012 10 16 0.00 0.03
8:53 am 08:53 Mostly Cloudy 41 5 31 -0.6 67 67 Calm 29.87 1011 10 16 0.00 0.00
9:53 am 09:53 Sunny 45 7.2 31 -0.6 58 58 E 3 6 29.84 1011 10 16 0.00 0.00
10:53 am 10:53 Mostly Sunny 49 9.4 32 0 52 52 VRB 5 7 29.80 1009 10 16 0.00 0.00
11:53 am 11:53 Partly Cloudy 51 10.6 32 0 48 48 SE 7 11 29.76 1008 10 16 0.00 0.00
12:53 pm 12:53 Partly Cloudy 53 11.7 31 -0.6 43 43 SE 7 11 29.73 1007 10 16 0.00 0.00
1:53 pm 13:53 Sunny 53 11.7 31 -0.6 43 43 ESE 6 9 29.72 1006 10 16 0.00 0.00
2:53 pm 14:53 Cloudy 56 13.3 33 0.6 42 42 SSE 6 9 29.69 1006 10 16 0.00 0.00
3:53 pm 15:53 Partly Cloudy 50 10 34 1.1 54 54 ESE 7 11 29.70 1006 10 16 0.00 0.00
4:53 pm 16:53 Clear 44 6.7 32 0 63 63 E 9 15 29.71 1006 10 16 0.00 0.00
5:53 pm 17:53 Mostly Clear 42 5.6 32 0 68 68 ESE 10 17 29.72 1006 10 16 0.00 0.00
6:53 pm 18:53 Mostly Cloudy 41 5 32 0 70 70 ESE 10 17 29.73 1007 10 16 0.00 0.00
7:53 pm 19:53 Cloudy 40 4.4 32 0 73 73 ESE 12 19 29.74 1007 10 16 0.00 0.00
8:53 pm 20:53 Cloudy 40 4.4 32 0 73 73 ESE 5 7 29.73 1007 10 16 0.00 0.00
9:53 pm 21:53 Cloudy 40 4.4 31 -0.6 70 70 ENE 5 7 29.73 1007 10 16 0.00 0.00
10:53 pm 22:53 Mostly Cloudy 39 3.9 31 -0.6 73 73 Calm 29.72 1007 10 16 0.00 0.00
11:53 pm 23:53 Cloudy 36 2.2 29 -1.7 76 76 Calm 29.72 1007 10 16 0.00 0.00

Powered by AerisWeather